Location: Peebles
(55.6412°N, 3.1714°W)
Time: 21:44:52
(UTC+01:00)

deb Kosmos-2123 - Pass Details

Date: 07 July 2022
Orbit: 942 x 985 km, 82.9° (Epoch: 17 August)

Event Time Altitude Azimuth Distance (km) Brightness Sun altitude
Exits shadow 02:10:53 13° 209° (SSW) 2,546 ? -10.9°
Maximum altitude 02:16:32 59° 287° (WNW) 1,130 ? -10.8°
Drops below altitude 10° 02:22:44 10° 7° (N) 2,734 ? -10.5°
Sets 02:25:18 0° 11° (NNE) 3,679 ? -10.4°
